Irving, TX

6:40 AM CST on February 14, 2016 (GMT -0600)
Dallas-Fort Worth International

Weather History for KDFW - November, 2013

Change the Weather History Date:

Sunday, November 10, 2013

  Actual Average Record
Temperature  
Mean Temperature 58 °F 59 °F  
Max Temperature 65 °F 69 °F 86 °F (1949)
Min Temperature 51 °F 48 °F 26 °F (1950)
Degree Days  
Heating Degree Days 7 7  
Month to date heating degree days 64 61  
Since 1 July heating degree days 108 133  
Cooling Degree Days 0 1  
Month to date cooling degree days 1 18  
Year to date cooling degree days 2913 2741  
Growing Degree Days 8 (Base 50)    
Moisture  
Dew Point 47 °F    
Average Humidity 64    
Maximum Humidity 72    
Minimum Humidity 56    
Precipitation  
Precipitation 0.00 in 0.10 in 2.23 in (2008)
Month to date precipitation 1.21 1.09  
Year to date precipitation 25.73 31.97  
Snow  
Snow 0.00 in 0.00 in 0.00 in ()
Month to date snowfall 0.0 0.0  
Since 1 July snowfall 0.0 0.0  
Since 1 September snowfall 0.0 0.0  
Snow Depth 0.00 in    
Sea Level Pressure  
Sea Level Pressure 30.27 in    
Wind  
Wind Speed 4 mph (SE)    
Max Wind Speed 9 mph    
Max Gust Speed 11 mph    
Visibility 10 miles    
Events      
T = Trace of Precipitation, MM = Missing Value Source: NWS Daily Summary

Daily Weather History Graph

Daily Weather History Graph

Search for Another Location

Airport or City:

Trip Planner

Search our weather history database for the weather conditions in past years. The results will help you decide how hot, cold, wet, or windy it might be!

Date:

Astronomy

Nov. 10, 2013 Rise Set
Actual Time 6:54 AM CST 5:29 PM CST
Civil Twilight 6:28 AM CST 5:55 PM CST
Nautical Twilight 5:58 AM CST 6:25 PM CST
Astronomical Twilight 5:29 AM CST 6:54 PM CST
Moon 1:15 PM CST (11/10) No Moon Set
Length of Visible Light 11h 27m
Length of Day
10h 35m
First Quarter, 56% of the Moon is Illuminated
Nov 10
First Quarter
Nov 17
Full
Nov 25
Last Quarter
Dec 2
New
Dec 9
First Quarter

Hourly Weather History & Observations

Time (CST) Temp. Dew Point Humidity Pressure Visibility Wind Dir Wind Speed Gust Speed Precip Events Conditions
12:53 AM 57.0 °F 46.9 °F 69% 30.21 in 10.0 mi ESE 8.1 mph - N/A   Mostly Cloudy
1:53 AM 57.9 °F 45.0 °F 62% 30.22 in 10.0 mi SE 6.9 mph - N/A   Mostly Cloudy
2:53 AM 57.9 °F 46.0 °F 65% 30.23 in 10.0 mi East 4.6 mph - N/A   Mostly Cloudy
3:53 AM 57.0 °F 46.0 °F 67% 30.24 in 10.0 mi East 5.8 mph - N/A   Overcast
4:53 AM 57.0 °F 46.0 °F 67% 30.25 in 10.0 mi ESE 5.8 mph - N/A   Overcast
5:53 AM 55.9 °F 46.0 °F 69% 30.27 in 10.0 mi ESE 4.6 mph - N/A   Overcast
6:53 AM 55.9 °F 46.0 °F 69% 30.29 in 10.0 mi East 4.6 mph - N/A   Overcast
7:53 AM 57.0 °F 46.0 °F 67% 30.31 in 10.0 mi East 5.8 mph - N/A   Overcast
8:53 AM 57.0 °F 46.0 °F 67% 30.33 in 10.0 mi Calm Calm - N/A   Overcast
9:53 AM 59.0 °F 46.9 °F 64% 30.33 in 10.0 mi Calm Calm - N/A   Overcast
10:53 AM 60.1 °F 46.9 °F 62% 30.32 in 10.0 mi Calm Calm - N/A   Overcast
11:53 AM 61.0 °F 48.0 °F 62% 30.32 in 10.0 mi East 4.6 mph - N/A   Overcast
12:53 PM 62.1 °F 48.0 °F 60% 30.29 in 10.0 mi Variable 3.5 mph - N/A   Overcast
1:53 PM 63.0 °F 48.0 °F 58% 30.26 in 10.0 mi Variable 3.5 mph - N/A   Overcast
2:53 PM 64.0 °F 48.0 °F 56% 30.25 in 10.0 mi SE 3.5 mph - N/A   Mostly Cloudy
3:53 PM 64.0 °F 48.9 °F 58% 30.25 in 10.0 mi ESE 3.5 mph - N/A   Mostly Cloudy
4:53 PM 63.0 °F 48.9 °F 60% 30.25 in 10.0 mi SE 3.5 mph - N/A   Scattered Clouds
5:53 PM 61.0 °F 48.0 °F 62% 30.26 in 10.0 mi South 3.5 mph - N/A   Partly Cloudy
6:53 PM 60.1 °F 46.0 °F 60% 30.27 in 10.0 mi SSW 3.5 mph - N/A   Partly Cloudy
7:53 PM 59.0 °F 45.0 °F 60% 30.27 in 10.0 mi Calm Calm - N/A   Clear
8:53 PM 55.9 °F 46.0 °F 69% 30.27 in 10.0 mi South 3.5 mph - N/A   Clear
9:53 PM 55.0 °F 46.0 °F 72% 30.27 in 10.0 mi South 4.6 mph - N/A   Clear
10:53 PM 55.0 °F 46.9 °F 74% 30.26 in 10.0 mi South 3.5 mph - N/A   Clear
11:53 PM 53.1 °F 46.0 °F 77% 30.26 in 10.0 mi Calm Calm - N/A   Clear